�������C�����ː����j�^�v���󋵏��
Date,Time,Cs137(Bq/L),Cs134(Bq/L),�S��(Bq/L)
2016/10/16,00:00,0.87,0.079,ND
2016/10/16,00:10,0.83,0.079,ND
2016/10/16,00:20,0.79,0.080,ND
2016/10/16,00:30,0.74,0.083,ND
2016/10/16,00:40,0.74,0.073,ND
2016/10/16,00:50,0.71,0.070,ND
2016/10/16,01:00,0.67,0.074,ND
2016/10/16,01:10,0.65,0.079,ND
2016/10/16,01:20,0.66,0.064,ND
2016/10/16,01:30,0.71,0.054,ND
2016/10/16,01:40,0.70,0.074,ND
2016/10/16,01:50,0.72,0.080,ND
2016/10/16,02:00,0.74,0.082,ND
2016/10/16,02:10,0.78,0.081,ND
2016/10/16,02:20,0.82,0.091,ND
2016/10/16,02:30,0.83,0.11,ND
2016/10/16,02:40,0.87,0.094,ND
2016/10/16,02:50,0.90,0.082,ND
2016/10/16,03:00,0.94,0.091,ND
2016/10/16,03:10,0.95,0.093,ND
2016/10/16,03:20,0.96,0.090,ND
2016/10/16,03:30,0.97,0.090,ND
2016/10/16,03:40,0.96,0.097,ND
2016/10/16,03:50,0.98,0.11,ND
2016/10/16,04:00,1.0,0.098,ND
2016/10/16,04:10,1.0,0.096,ND
2016/10/16,04:20,1.0,0.11,ND
2016/10/16,04:30,1.0,0.10,ND
2016/10/16,04:40,1.0,0.10,ND
2016/10/16,04:50,1.0,0.10,ND
2016/10/16,05:00,1.0,0.11,ND
2016/10/16,05:10,0.99,0.12,ND
2016/10/16,05:20,0.97,0.11,ND
2016/10/16,05:30,0.97,0.11,ND
2016/10/16,05:40,0.97,0.11,ND
2016/10/16,05:50,0.94,0.12,ND
2016/10/16,06:00,0.93,0.11,ND
2016/10/16,06:10,0.98,0.098,ND
2016/10/16,06:20,0.99,0.098,ND
2016/10/16,06:30,0.98,0.092,ND
2016/10/16,06:40,0.95,0.092,ND
2016/10/16,06:50,0.95,0.088,ND
2016/10/16,07:00,0.90,0.12,ND
2016/10/16,07:10,0.88,0.12,ND
2016/10/16,07:20,0.85,0.13,ND
2016/10/16,07:30,0.86,0.12,ND
2016/10/16,07:40,0.88,0.13,ND
2016/10/16,07:50,0.88,0.13,ND
2016/10/16,08:00,0.89,0.14,ND
2016/10/16,08:10,0.90,0.14,ND
2016/10/16,08:20,0.93,0.12,ND
2016/10/16,08:30,0.97,0.11,ND
2016/10/16,08:40,0.92,0.14,ND
2016/10/16,08:50,0.94,0.14,ND
2016/10/16,09:00,0.96,0.12,ND
2016/10/16,09:10,0.95,0.12,ND
2016/10/16,09:20,0.97,0.12,ND
2016/10/16,09:30,0.95,0.14,ND
2016/10/16,09:40,0.97,0.14,ND
2016/10/16,09:50,0.99,0.11,ND
2016/10/16,10:00,0.94,0.13,ND
2016/10/16,10:10,0.97,0.10,ND
2016/10/16,10:20,0.92,0.087,ND
2016/10/16,10:30,0.85,0.085,ND
2016/10/16,10:40,0.79,0.076,ND
2016/10/16,10:50,0.70,0.090,ND
2016/10/16,11:00,0.63,0.081,ND
2016/10/16,11:10,0.59,0.066,ND
2016/10/16,11:20,0.54,0.071,ND
2016/10/16,11:30,0.52,0.065,ND
2016/10/16,11:40,0.49,0.065,ND
2016/10/16,11:50,0.54,0.043,ND
2016/10/16,12:00,0.53,0.066,ND
2016/10/16,12:10,0.52,0.075,ND
2016/10/16,12:20,0.56,0.049,ND
2016/10/16,12:30,0.56,0.066,ND
2016/10/16,12:40,0.55,0.064,ND
2016/10/16,12:50,0.54,0.056,ND
2016/10/16,13:00,0.53,0.057,ND
2016/10/16,13:10,0.53,0.057,ND
2016/10/16,13:20,0.55,0.049,ND
2016/10/16,13:30,0.54,0.040,ND
2016/10/16,13:40,0.57,0.040,ND
2016/10/16,13:50,0.56,0.047,ND
2016/10/16,14:00,0.57,0.042,ND
2016/10/16,14:10,0.51,0.062,ND
2016/10/16,14:20,0.49,0.059,ND
2016/10/16,14:30,0.52,0.040,ND
2016/10/16,14:40,0.51,0.041,ND
2016/10/16,14:50,0.52,0.037,ND
2016/10/16,15:00,0.51,0.041,ND
2016/10/16,15:10,0.51,0.033,ND
2016/10/16,15:20,0.54,0.034,ND
2016/10/16,15:30,0.53,0.039,ND
2016/10/16,15:40,0.54,0.031,ND
2016/10/16,15:50,0.51,0.045,ND
2016/10/16,16:00,0.50,0.048,ND
2016/10/16,16:10,0.51,0.055,ND
2016/10/16,16:20,0.50,0.050,ND
2016/10/16,16:30,0.50,0.056,ND
2016/10/16,16:40,0.49,0.058,ND
2016/10/16,16:50,0.55,0.041,ND
2016/10/16,17:00,0.56,0.038,ND
2016/10/16,17:10,0.55,0.045,ND
2016/10/16,17:20,0.54,0.048,ND
2016/10/16,17:30,0.55,0.031,ND
2016/10/16,17:40,0.54,0.040,ND
2016/10/16,17:50,0.51,0.039,ND
2016/10/16,18:00,0.50,0.042,ND
2016/10/16,18:10,0.51,0.039,ND
2016/10/16,18:20,0.50,0.045,ND
2016/10/16,18:30,0.48,0.049,ND
2016/10/16,18:40,0.49,0.038,ND
2016/10/16,18:50,0.48,0.052,ND
2016/10/16,19:00,0.49,0.045,ND
2016/10/16,19:10,0.50,0.040,ND
2016/10/16,19:20,0.52,0.036,ND
2016/10/16,19:30,0.53,0.045,ND
2016/10/16,19:40,0.55,0.039,ND
2016/10/16,19:50,0.55,0.031,ND
2016/10/16,20:00,0.54,0.039,ND
2016/10/16,20:10,0.54,0.041,ND
2016/10/16,20:20,0.54,0.039,ND
2016/10/16,20:30,0.53,0.042,ND
2016/10/16,20:40,0.52,0.060,ND
2016/10/16,20:50,0.54,0.068,ND
2016/10/16,21:00,0.56,0.076,ND
2016/10/16,21:10,0.57,0.078,ND
2016/10/16,21:20,0.59,0.082,ND
2016/10/16,21:30,0.63,0.080,ND
2016/10/16,21:40,0.67,0.076,ND
2016/10/16,21:50,0.70,0.072,ND
2016/10/16,22:00,0.74,0.060,ND
2016/10/16,22:10,0.79,0.051,ND
2016/10/16,22:20,0.81,0.050,ND
2016/10/16,22:30,0.82,0.052,ND
2016/10/16,22:40,0.89,0.069,ND
2016/10/16,22:50,0.91,0.067,ND
2016/10/16,23:00,0.90,0.070,ND
2016/10/16,23:10,0.86,0.082,ND
2016/10/16,23:20,0.84,0.084,ND
2016/10/16,23:30,0.82,0.069,ND
2016/10/16,23:40,0.76,0.052,ND
2016/10/16,23:50,0.70,0.057,ND
